• en Suisse
  • Liste des pays
  • À 7 jours
  • Température de l'eau
  • Carte satellitaire
  • Carte météo
  • Widgets météo
  • user-avatar
    Se connecter

    Météo par heure à Nemkovichi

    Ce jour, 26 Septembre, Mercredi

    Heure Température Précipitation Vent Pression Humidité
    00:00 +4°C° 0 mm 4 m/s 759 mmHg 78%
    01:00 +3°C° 0 mm 3 m/s 759 mmHg 81%
    02:00 +3°C° 0 mm 3 m/s 760 mmHg 83%
    03:00 +3°C° 0 mm 3 m/s 760 mmHg 85%
    04:00 +2°C° 0 mm 3 m/s 760 mmHg 87%
    05:00 +2°C° 0 mm 3 m/s 760 mmHg 89%
    06:00 +3°C° 0 mm 3 m/s 760 mmHg 83%
    07:00 +4°C° 0 mm 3 m/s 760 mmHg 78%
    08:00 +5°C° 0 mm 4 m/s 760 mmHg 72%
    09:00 +6°C° 0 mm 4 m/s 760 mmHg 65%
    10:00 +8°C° 0 mm 5 m/s 760 mmHg 58%
    11:00 +10°C° 0 mm 5 m/s 760 mmHg 51%
    12:00 +10°C° 0 mm 6 m/s 759 mmHg 50%
    13:00 +11°C° 0 mm 6 m/s 758 mmHg 50%
    14:00 +11°C° 0 mm 6 m/s 758 mmHg 50%
    15:00 +11°C° 0 mm 6 m/s 757 mmHg 53%
    16:00 +10°C° 0 mm 5 m/s 757 mmHg 56%
    17:00 +9°C° 0 mm 5 m/s 756 mmHg 60%
    18:00 +9°C° 0.4 mm 5 m/s 756 mmHg 66%
    19:00 +8°C° 0.4 mm 6 m/s 755 mmHg 72%
    20:00 +7°C° 0.4 mm 6 m/s 755 mmHg 78%
    21:00 +6°C° 0.4 mm 7 m/s 754 mmHg 80%
    22:00 +6°C° 0.4 mm 7 m/s 754 mmHg 81%
    23:00 +6°C° 0.4 mm 8 m/s 753 mmHg 83%

    Demain, 27 Septembre, Jeudi

    Heure Température Précipitation Vent Pression Humidité
    00:00 +6°C° 0.9 mm 7 m/s 752 mmHg 82%
    01:00 +6°C° 0.9 mm 7 m/s 752 mmHg 82%
    02:00 +8°C° 0.9 mm 7 m/s 751 mmHg 81%
    03:00 +8°C° 0.2 mm 7 m/s 751 mmHg 80%
    04:00 +8°C° 0.2 mm 7 m/s 750 mmHg 79%
    05:00 +8°C° 0.2 mm 7 m/s 750 mmHg 79%
    06:00 +9°C° 0.1 mm 7 m/s 750 mmHg 79%
    07:00 +9°C° 0.1 mm 7 m/s 749 mmHg 80%
    08:00 +9°C° 0.1 mm 7 m/s 749 mmHg 80%
    09:00 +10°C° 0.1 mm 7 m/s 750 mmHg 82%
    10:00 +10°C° 0.1 mm 7 m/s 750 mmHg 83%
    11:00 +11°C° 0.1 mm 7 m/s 750 mmHg 84%
    12:00 +11°C° 0.1 mm 7 m/s 750 mmHg 84%
    13:00 +13°C° 0.1 mm 6 m/s 750 mmHg 84%
    14:00 +14°C° 0.1 mm 6 m/s 750 mmHg 84%
    15:00 +14°C° 0.1 mm 6 m/s 750 mmHg 83%
    16:00 +15°C° 0.1 mm 6 m/s 750 mmHg 83%
    17:00 +15°C° 0.1 mm 5 m/s 750 mmHg 82%
    18:00 +14°C° 0 mm 5 m/s 750 mmHg 85%
    19:00 +14°C° 0 mm 4 m/s 750 mmHg 88%
    20:00 +13°C° 0 mm 4 m/s 750 mmHg 91%
    21:00 +13°C° 0 mm 4 m/s 750 mmHg 91%
    22:00 +13°C° 0 mm 4 m/s 749 mmHg 91%
    23:00 +13°C° 0 mm 4 m/s 749 mmHg 91%

    Après-demain, 28 Septembre, Vendredi

    Heure Température Précipitation Vent Pression Humidité
    00:00 +13°C° 0 mm 5 m/s 748 mmHg 91%
    01:00 +12°C° 0 mm 5 m/s 748 mmHg 92%
    02:00 +12°C° 0 mm 5 m/s 747 mmHg 92%
    03:00 +12°C° 0 mm 5 m/s 747 mmHg 92%
    04:00 +12°C° 0 mm 5 m/s 746 mmHg 92%
    05:00 +11°C° 0 mm 6 m/s 746 mmHg 92%
    06:00 +13°C° 0 mm 6 m/s 745 mmHg 89%
    07:00 +13°C° 0 mm 6 m/s 745 mmHg 86%
    08:00 +13°C° 0 mm 6 m/s 745 mmHg 83%
    09:00 +14°C° 0.2 mm 6 m/s 745 mmHg 82%
    10:00 +14°C° 0.2 mm 6 m/s 745 mmHg 82%
    11:00 +14°C° 0.2 mm 6 m/s 745 mmHg 81%
    12:00 +14°C° 0.5 mm 5 m/s 745 mmHg 82%
    13:00 +13°C° 0.5 mm 5 m/s 745 mmHg 84%
    14:00 +13°C° 0.5 mm 4 m/s 745 mmHg 85%
    15:00 +13°C° 0.2 mm 4 m/s 746 mmHg 83%
    16:00 +13°C° 0.2 mm 3 m/s 746 mmHg 80%
    17:00 +12°C° 0.2 mm 3 m/s 746 mmHg 78%
    18:00 +11°C° 0 mm 3 m/s 746 mmHg 79%
    19:00 +10°C° 0 mm 3 m/s 747 mmHg 80%
    20:00 +9°C° 0 mm 2 m/s 747 mmHg 82%
    21:00 +8°C° 0 mm 2 m/s 747 mmHg 83%
    22:00 +8°C° 0 mm 2 m/s 748 mmHg 84%
    23:00 +7°C° 0 mm 2 m/s 748 mmHg 84%

    29 Septembre, Samedi

    Heure Température Précipitation Vent Pression Humidité
    00:00 +7°C° 0 mm 2 m/s 748 mmHg 86%
    01:00 +7°C° 0 mm 2 m/s 748 mmHg 87%
    02:00 +7°C° 0 mm 2 m/s 749 mmHg 88%
    03:00 +7°C° 0 mm 2 m/s 749 mmHg 89%
    04:00 +7°C° 0 mm 2 m/s 749 mmHg 91%
    05:00 +7°C° 0 mm 2 m/s 750 mmHg 92%
    06:00 +7°C° 0 mm 2 m/s 750 mmHg 91%
    07:00 +7°C° 0 mm 2 m/s 750 mmHg 89%
    08:00 +7°C° 0 mm 3 m/s 751 mmHg 88%
    09:00 +9°C° 0 mm 3 m/s 751 mmHg 82%
    10:00 +10°C° 0 mm 3 m/s 752 mmHg 76%
    11:00 +11°C° 0 mm 3 m/s 752 mmHg 70%
    12:00 +11°C° 0.1 mm 3 m/s 752 mmHg 67%
    13:00 +12°C° 0.1 mm 3 m/s 752 mmHg 63%
    14:00 +13°C° 0.1 mm 4 m/s 752 mmHg 59%
    15:00 +12°C° 0 mm 3 m/s 753 mmHg 61%
    16:00 +12°C° 0 mm 3 m/s 753 mmHg 63%
    17:00 +11°C° 0 mm 3 m/s 753 mmHg 65%
    18:00 +10°C° 0 mm 3 m/s 754 mmHg 70%
    19:00 +8°C° 0 mm 2 m/s 754 mmHg 74%
    20:00 +7°C° 0 mm 2 m/s 755 mmHg 79%
    21:00 +7°C° 0 mm 2 m/s 755 mmHg 80%
    22:00 +6°C° 0 mm 2 m/s 755 mmHg 81%
    23:00 +6°C° 0 mm 2 m/s 756 mmHg 82%

    30 Septembre, Dimanche

    Heure Température Précipitation Vent Pression Humidité
    00:00 +5°C° 0 mm 2 m/s 756 mmHg 83%
    01:00 +5°C° 0 mm 2 m/s 756 mmHg 84%
    02:00 +5°C° 0 mm 2 m/s 756 mmHg 85%
    03:00 +4°C° 0 mm 2 m/s 756 mmHg 86%
    04:00 +4°C° 0 mm 2 m/s 756 mmHg 88%
    05:00 +5°C° 0 mm 1 m/s 756 mmHg 89%
    06:00 +6°C° 0 mm 1 m/s 756 mmHg 88%
    07:00 +6°C° 0 mm 1 m/s 756 mmHg 86%
    08:00 +7°C° 0 mm 1 m/s 756 mmHg 85%
    09:00 +9°C° 0 mm 1 m/s 756 mmHg 78%
    10:00 +10°C° 0 mm 2 m/s 755 mmHg 72%
    11:00 +13°C° 0 mm 2 m/s 755 mmHg 65%
    12:00 +13°C° 0 mm 2 m/s 755 mmHg 62%
    13:00 +14°C° 0 mm 2 m/s 754 mmHg 58%
    14:00 +15°C° 0 mm 2 m/s 754 mmHg 55%
    15:00 +15°C° 0 mm 1 m/s 753 mmHg 57%
    16:00 +14°C° 0 mm 1 m/s 753 mmHg 60%
    17:00 +14°C° 0 mm 1 m/s 752 mmHg 62%
    18:00 +13°C° 0 mm 1 m/s 752 mmHg 66%
    19:00 +11°C° 0 mm 1 m/s 752 mmHg 70%
    20:00 +10°C° 0 mm 1 m/s 752 mmHg 74%
    21:00 +10°C° 0 mm 1 m/s 752 mmHg 75%
    22:00 +9°C° 0 mm 1 m/s 752 mmHg 76%
    23:00 +9°C° 0 mm 1 m/s 752 mmHg 78%

    1 Octobre, Lundi

    Heure Température Précipitation Vent Pression Humidité
    00:00 +9°C° 0 mm 1 m/s 751 mmHg 78%
    01:00 +9°C° 0 mm 1 m/s 751 mmHg 78%
    02:00 +9°C° 0 mm 1 m/s 751 mmHg 78%
    03:00 +9°C° 0 mm 1 m/s 751 mmHg 78%
    04:00 +10°C° 0 mm 1 m/s 750 mmHg 79%
    05:00 +10°C° 0 mm 1 m/s 750 mmHg 79%
    06:00 +10°C° 0 mm 1 m/s 750 mmHg 80%
    07:00 +10°C° 0 mm 1 m/s 750 mmHg 81%
    08:00 +11°C° 0 mm 1 m/s 749 mmHg 82%
    09:00 +12°C° 0 mm 1 m/s 749 mmHg 79%
    10:00 +13°C° 0 mm 1 m/s 749 mmHg 77%
    11:00 +14°C° 0 mm 1 m/s 749 mmHg 74%
    12:00 +15°C° 0 mm 1 m/s 748 mmHg 73%
    13:00 +15°C° 0 mm 1 m/s 748 mmHg 73%
    14:00 +16°C° 0 mm 1 m/s 747 mmHg 72%
    15:00 +15°C° 0.1 mm 1 m/s 747 mmHg 75%
    16:00 +15°C° 0.1 mm 1 m/s 747 mmHg 77%
    17:00 +15°C° 0.1 mm 1 m/s 746 mmHg 80%
    18:00 +14°C° 0.1 mm 1 m/s 747 mmHg 83%
    19:00 +13°C° 0.1 mm 1 m/s 747 mmHg 87%
    20:00 +11°C° 0.1 mm 1 m/s 747 mmHg 90%
    21:00 +11°C° 0 mm 1 m/s 747 mmHg 90%
    22:00 +11°C° 0 mm 1 m/s 747 mmHg 90%
    23:00 +10°C° 0 mm 2 m/s 747 mmHg 90%
    Voir plus